Falls City, NE

1:37 AM CDT on August 23, 2017 (GMT -0500)
Brenner

Weather History for KFNB - October, 2013

Change the Weather History Date:

Wednesday, October 16, 2013

  Actual Average Record
Temperature  
Mean Temperature 50 °F -  
Max Temperature 59 °F 67 °F 87 °F (1958)
Min Temperature 42 °F 41 °F 25 °F (1966)
Degree Days  
Heating Degree Days 16    
Moisture  
Dew Point 38 °F    
Average Humidity 66    
Maximum Humidity 81    
Minimum Humidity 41    
Precipitation  
Precipitation 0.00 in - - ()
Sea Level Pressure  
Sea Level Pressure 30.05 in    
Wind  
Wind Speed 9 mph (WNW)    
Max Wind Speed 15 mph    
Max Gust Speed 20 mph    
Visibility 10 miles    
Events Rain    
Averages and records for this station are not official NWS values.
T = Trace of Precipitation, MM = Missing Value Source: NWS Daily Summary

Daily Weather History Graph

Daily Weather History Graph

Search for Another Location

Airport or City:

Trip Planner

Search our weather history database for the weather conditions in past years. The results will help you decide how hot, cold, wet, or windy it might be!

Date:

Astronomy

Oct. 16, 2013 Rise Set
Actual Time 7:34 AM CDT 6:40 PM CDT
Civil Twilight 7:06 AM CDT 7:08 PM CDT
Nautical Twilight 6:35 AM CDT 7:39 PM CDT
Astronomical Twilight 6:03 AM CDT 8:10 PM CDT
Moon 5:21 PM CDT (10/16) 5:03 AM CDT (10/16)
Length of Visible Light 12h 01m
Length of Day
11h 06m
Waxing Gibbous, 94% of the Moon is Illuminated
Oct 16
Waxing Gibbous
Oct 18
Full
Oct 26
Last Quarter
Nov 3
New
Nov 9
First Quarter

Hourly Weather History & Observations

Time (CDT) Temp. Windchill Dew Point Humidity Pressure Visibility Wind Dir Wind Speed Gust Speed Precip Events Conditions
12:53 AM 48.0 °F - 37.9 °F 68% 30.08 in 10.0 mi WNW 11.5 mph - N/A   Overcast
1:38 AM 46.4 °F 40.1 °F 39.2 °F 76% 30.09 in 10.0 mi WNW 15.0 mph - N/A   Overcast
1:53 AM 46.0 °F 41.4 °F 39.9 °F 79% 30.09 in 10.0 mi NW 9.2 mph - 0.00 in Rain Light Rain
2:10 AM 46.4 °F 42.9 °F 39.2 °F 76% 30.09 in 10.0 mi WNW 6.9 mph - 0.00 in   Overcast
2:53 AM 46.9 °F - 39.9 °F 77% 30.09 in 10.0 mi WNW 11.5 mph - 0.00 in   Overcast
3:19 AM 46.4 °F 41.9 °F 39.2 °F 76% 30.08 in 10.0 mi WNW 9.2 mph - N/A   Overcast
3:53 AM 46.9 °F - 39.9 °F 77% 30.07 in 10.0 mi WNW 10.4 mph - N/A   Overcast
4:53 AM 46.9 °F - 39.0 °F 74% 30.07 in 10.0 mi WNW 10.4 mph 18.4 mph N/A   Overcast
5:53 AM 46.0 °F 41.4 °F 39.0 °F 76% 30.08 in 10.0 mi WNW 9.2 mph - N/A   Overcast
6:53 AM 46.0 °F 41.4 °F 39.0 °F 76% 30.08 in 10.0 mi WNW 9.2 mph - N/A   Overcast
7:10 AM 46.4 °F 41.5 °F 37.4 °F 71% 30.07 in 10.0 mi NW 10.4 mph - N/A   Overcast
7:53 AM 44.1 °F 38.6 °F 37.9 °F 79% 30.08 in 10.0 mi West 10.4 mph - N/A   Mostly Cloudy
8:10 AM 42.8 °F 38.0 °F 37.4 °F 81% 30.08 in 10.0 mi West 8.1 mph - N/A   Scattered Clouds
8:53 AM 45.0 °F 39.3 °F 37.9 °F 76% 30.10 in 10.0 mi West 11.5 mph - N/A   Clear
9:53 AM 48.0 °F - 37.9 °F 68% 30.10 in 10.0 mi WNW 11.5 mph - N/A   Clear
10:53 AM 50.0 °F - 37.9 °F 63% 30.09 in 10.0 mi WNW 11.5 mph - N/A   Scattered Clouds
11:51 AM 53.6 °F - 39.2 °F 58% 30.08 in 10.0 mi NW 10.4 mph - N/A   Mostly Cloudy
11:53 AM 53.1 °F - 39.0 °F 59% 30.08 in 10.0 mi NNW 8.1 mph - N/A   Mostly Cloudy
12:04 PM 51.8 °F - 37.4 °F 58% 30.08 in 10.0 mi WNW 11.5 mph 19.6 mph N/A   Scattered Clouds
12:53 PM 55.9 °F - 39.0 °F 53% 30.06 in 10.0 mi WNW 11.5 mph - N/A   Mostly Cloudy
1:53 PM 55.0 °F - 37.0 °F 51% 30.04 in 10.0 mi NNW 8.1 mph - N/A   Mostly Cloudy
2:53 PM 57.0 °F - 35.1 °F 44% 30.01 in 10.0 mi West 5.8 mph - N/A   Clear
3:53 PM 57.9 °F - 36.0 °F 44% 30.00 in 10.0 mi West 9.2 mph - N/A   Partly Cloudy
4:53 PM 57.9 °F - 34.0 °F 41% 29.97 in 10.0 mi NW 5.8 mph - N/A   Clear
5:53 PM 54.0 °F - 36.0 °F 51% 29.98 in 10.0 mi WNW 4.6 mph - N/A   Clear
6:53 PM 53.1 °F - 37.0 °F 55% 30.00 in 10.0 mi Calm Calm - N/A   Clear
7:53 PM 51.1 °F - 37.9 °F 61% 30.00 in 10.0 mi Calm Calm - N/A   Clear
8:53 PM 50.0 °F - 37.9 °F 63% 30.00 in 10.0 mi Calm Calm - N/A   Clear
9:53 PM 46.9 °F - 39.9 °F 77% 30.00 in 10.0 mi Calm Calm - N/A   Clear
10:53 PM 46.9 °F - 39.0 °F 74% 29.99 in 10.0 mi SSW 4.6 mph - N/A   Mostly Cloudy
11:53 PM 46.9 °F - 39.9 °F 77% 29.98 in 10.0 mi SW 5.8 mph - N/A   Overcast